Location: Newark
(33.6439°N, 114.9881°W)
Time: 14:05:16
(UTC+00:00)

A-11 Canister half - Pass Details

Date: 28 August 2019
Orbit: 1527 x 1682 km, 47.3° (Epoch: 22 October)

Event Time Altitude Azimuth Distance (km) Brightness Sun altitude
Rises 18:21:31 0° 252° (WSW) 4,798 11.5 59.8°
Reaches altitude 10° 18:24:41 10° 256° (WSW) 3,835 11.1 60.2°
Maximum altitude 18:34:19 56° 334° (NNW) 1,903 10.0 61.5°
Drops below altitude 10° 18:44:14 10° 51° (NE) 3,938 11.2 62.6°
Sets 18:47:32 0° 56° (NE) 4,934 11.6 63.0°
